TimeAST,TemperatureF,Dew PointF,Humidity,Sea Level PressureIn,VisibilityMPH,Wind Direction,Wind SpeedMPH,Gust SpeedMPH,PrecipitationIn,Events,Conditions,WindDirDegrees,DateUTC
12:00 AM,28.4,28.4,100,29.44,3.0,NW,17.3,27.6,N/A,Snow,Light Snow,310,2013-02-13 04:00:00
1:00 AM,28.4,28.4,100,29.47,6.0,WNW,16.1,25.3,N/A,Snow,Light Snow,300,2013-02-13 05:00:00
2:00 AM,29,27,90,29.50,3,NW,15.0,,,Snow,Light Snow,310,2013-02-13 06:00:00
2:00 AM,28.4,26.6,93,29.50,3.0,NW,15.0,25.3,N/A,Snow,Light Snow,310,2013-02-13 06:00:00
3:00 AM,28.4,26.6,93,29.54,12.0,WNW,13.8,21.9,N/A,Snow,Low Drifting Snow,300,2013-02-13 07:00:00
3:33 AM,28.4,26.6,93,29.56,10.0,WNW,11.5,20.7,N/A,Snow,Light Snow Showers,300,2013-02-13 07:33:00
4:00 AM,28.4,26.6,93,29.57,10.0,WNW,9.2,-,N/A,Snow,Light Snow Showers,300,2013-02-13 08:00:00
5:00 AM,28.4,26.6,93,29.57,15.0,NW,10.4,-,N/A,Snow,Light Snow Showers,310,2013-02-13 09:00:00
6:00 AM,28.4,26.6,93,29.58,15.0,NW,8.1,-,N/A,,Overcast,310,2013-02-13 10:00:00
7:00 AM,26.6,24.8,93,29.59,15.0,WNW,6.9,-,N/A,,Mostly Cloudy,300,2013-02-13 11:00:00
8:00 AM,28,26,89,29.63,15,West,6.9,,,,Partly Cloudy,270,2013-02-13 12:00:00
8:00 AM,26.6,26.6,100,29.63,15.0,West,6.9,-,N/A,,Mostly Cloudy,270,2013-02-13 12:00:00
9:00 AM,28.4,26.6,93,29.65,15.0,West,6.9,-,N/A,,Overcast,270,2013-02-13 13:00:00
10:00 AM,30.2,26.6,86,29.67,15.0,West,6.9,-,N/A,,Overcast,260,2013-02-13 14:00:00
11:00 AM,30.2,26.6,86,29.68,15.0,WSW,6.9,-,N/A,,Overcast,250,2013-02-13 15:00:00
12:00 PM,30.2,26.6,86,29.67,15.0,WNW,10.4,-,N/A,,Overcast,300,2013-02-13 16:00:00
1:00 PM,30.2,28.4,93,29.66,15.0,WNW,6.9,-,N/A,,Overcast,290,2013-02-13 17:00:00
2:00 PM,32,28,79,29.66,15,WNW,6.9,,,,Overcast,290,2013-02-13 18:00:00
2:00 PM,32.0,28.4,87,29.66,15.0,WNW,6.9,-,N/A,,Overcast,300,2013-02-13 18:00:00
3:00 PM,32.0,28.4,87,29.67,15.0,West,6.9,-,N/A,,Overcast,280,2013-02-13 19:00:00
4:00 PM,30.2,28.4,93,29.68,15.0,NW,8.1,-,N/A,,Overcast,320,2013-02-13 20:00:00
5:00 PM,30.2,26.6,86,29.69,15.0,NW,4.6,-,N/A,,Overcast,320,2013-02-13 21:00:00
6:00 PM,30.2,28.4,93,29.71,15.0,WSW,2.3,-,N/A,,Overcast,240,2013-02-13 22:00:00
7:00 PM,30.2,26.6,86,29.73,15.0,WSW,3.5,-,N/A,,Overcast,240,2013-02-13 23:00:00
8:00 PM,30,28,87,29.74,15,Calm,Calm,,,,Overcast,,2013-02-14 00:00:00
8:00 PM,30.2,28.4,93,29.73,15.0,Calm,Calm,-,N/A,,Overcast,0,2013-02-14 00:00:00
9:00 PM,30.2,28.4,93,29.74,15.0,Calm,Calm,-,N/A,,Overcast,0,2013-02-14 01:00:00
10:00 PM,30.2,28.4,93,29.74,15.0,SSW,4.6,-,N/A,,Overcast,210,2013-02-14 02:00:00
11:00 PM,30.2,28.4,93,29.74,15.0,SSW,4.6,-,N/A,,Overcast,210,2013-02-14 03:00:00